EW9560 Weather Reports


Display with metric or nautical units.
time (UTC)temp
F
wind
direction
speed
MPH
gust
MPH
rain 1hr
in
rain 24hr
in
rain mn
in
humidity
%
barometer
mb
20260502231536 77 1 2.0 6.0 0.00 0.00 0.00 49 1013.2
20260502230041 77 8 2.0 4.0 0.00 0.00 0.00 49 1013.4
20260502223036 76 17 3.0 7.0 0.00 0.00 0.00 54 1013.9
20260502221619 76 29 3.0 7.0 0.00 0.00 0.00 54 1014.1
20260502221609 76 30 2.0 6.0 0.00 0.00 0.00 53 1014.4
20260502214536 76 302 1.0 5.0 0.00 0.00 0.00 53 1014.5
20260502213035 73 311 1.0 5.0 0.00 0.00 0.00 57 1014.7
20260502211535 71 13 1.0 5.0 0.00 0.00 0.00 59 1015.0
20260502204535 71 48 2.0 5.0 0.00 0.00 0.00 60 1015.3
20260502201535 68 153 3.0 9.0 0.00 0.00 0.00 66 1015.6
20260502200045 64 237 3.0 8.0 0.00 0.00 0.00 70 1015.7
20260502200036 61 315 3.0 7.0 0.00 0.00 0.00 72 1015.8
20260502190034 62 1 3.0 7.0 0.00 0.00 0.00 71 1017.0
20260502184536 61 17 3.0 7.0 0.00 0.00 0.00 73 1017.1
20260502181532 62 1 2.0 6.0 0.00 0.00 0.00 73 1017.1
20260502163035 56 17 2.0 5.0 0.00 0.00 0.00 79 1017.4
20260502161618 56 348 2.0 5.0 0.00 0.00 0.00 79 1017.5
20260502151530 55 331 1.0 6.0 0.00 0.00 0.00 80 1017.1
20260502123031 54 24 1.0 4.0 0.00 0.00 0.00 81 1015.8
20260502114538 55 246 0.0 2.0 0.00 0.00 0.00 81 1016.1
20260502113037 55 116 1.0 3.0 0.00 0.00 0.00 78 1015.8
20260502110045 57 333 1.0 5.0 0.00 0.00 0.00 77 1015.9
20260502104611 58 250 0.0 2.0 0.00 0.00 0.00 74 1016.4
20260502103035 58 248 4.0 9.0 0.00 0.00 0.00 72 1016.4
20260502101532 58 262 2.0 6.0 0.00 0.00 0.00 72 1016.5
20260502100137 58 299 4.0 13.0 0.00 0.00 0.00 71 1016.6
20260502071536 63 270 3.0 7.0 0.00 0.00 0.00 58 1016.4
20260502070034 64 278 6.0 14.0 0.00 0.00 0.00 57 1016.4
20260502064536 64 290 7.0 16.0 0.00 0.00 0.00 57 1016.5
20260502063036 64 284 5.0 11.0 0.00 0.00 0.00 58 1016.5
20260502060031 65 250 4.0 9.0 0.00 0.00 0.00 56 1016.4
20260502051537 66 273 3.0 7.0 0.00 0.00 0.00 55 1016.0
20260502050033 66 296 6.0 14.0 0.00 0.00 0.00 55 1015.9
20260502044530 66 285 3.0 11.0 0.00 0.00 0.00 54 1015.9
20260502043110 67 276 2.0 8.0 0.00 0.00 0.00 54 1015.6
20260502041536 67 282 7.0 18.0 0.00 0.00 0.00 54 1015.4
20260502040039 68 288 10.0 20.0 0.00 0.00 0.00 54 1015.2
20260502034532 68 295 8.0 20.0 0.00 0.00 0.00 53 1015.2
20260502033036 69 276 6.0 14.0 0.00 0.00 0.00 52 1015.2
20260502031537 68 262 7.0 14.0 0.00 0.00 0.00 52 1015.1
20260502024537 69 287 10.0 23.0 0.00 0.00 0.00 50 1014.1
20260502023111 70 286 10.0 21.0 0.00 0.00 0.00 49 1013.9
20260502021530 71 295 9.0 18.0 0.00 0.00 0.00 48 1013.8
20260502020031 73 287 8.0 14.0 0.00 0.00 0.00 46 1013.7
20260502013035 75 296 6.0 11.0 0.00 0.00 0.00 41 1013.6
20260502010107 78 315 3.0 7.0 0.00 0.00 0.00 37 1013.5
20260502001535 79 1 3.0 8.0 0.00 0.00 0.00 34 1013.7
20260502000034 78 315 3.0 7.0 0.00 0.00 0.00 36 1013.9
20260501234536 79 319 4.0 10.0 0.00 0.00 0.00 33 1014.2